Location: Shepherdstown, WV
(39.4326°N, 77.8042°W)
Time: 18:00:11
(UTC-04:00)

STARLINK-2627 - Pass Details

Date: 19 June 2021
Orbit: 348 x 351 km, 53.0° (Epoch: 26 July)

Event Time Altitude Azimuth Distance (km) Brightness Sun altitude
Exits shadow 04:57:40 - 178° (S) 2,005 6.1 -8.1°
Reaches altitude 10° 05:00:48 10° 135° (SE) 1,308 5.6 -7.6°
Maximum altitude 05:01:13 10° 127° (SE) 1,296 5.7 -7.6°
Drops below altitude 10° 05:01:39 10° 118° (ESE) 1,310 5.9 -7.5°
Sets 05:05:13 0° 72° (ENE) 2,160 8.2 -7.0°
